If you wish to contribute or participate in the discussions about articles you are invited to join SKYbrary as a registered user

 Actions

Santorini/Thira Airport

From SKYbrary Wiki

LGSR
Airport
ICAO: LGSR – IATA: JTR
Summary
Name Santorini/Thira Airport
Region Europe
Territory Greece GR.gif
Location Kamari, Santorini
Serving Thira, Santorini
Elevation 38.71 m <br />127 ft <br />127 ft38.71 m <br />
Coordinates 36° 24' 6.00" N, 25° 28' 42.00" E
Runways
Designator Length Width Surface ROPS
16L/34R 2125 m6,971.785 ft <br /> 30 m98.425 ft <br /> ASP yes/yes
16R/34L 0 m0 ft <br /> 0 m0 ft <br /> UNK yes/yes


METAR
Observation LGSR 241920Z 36020KT 9999 FEW025 15/10 Q1027
Station Santorini Island
Date/Time 24 February 2021 19:20:00
Wind direction 360°
Wind speed 20 kts
Lowest cloud amount few clouds
Temperature 15°C
Dew point 10°C
Humidity 72%
QNH 1027 hPa
Weather condition n/a

CFIT
Tag(s) Runway Visual Perspective
WX
Tag(s) Low Level Turbulence

Santorini/Thira Airport

ICAO: LGSR IATA: JTR

Description

International airport on the island of Santorini, Greece.

Climatology

Mediterranean climate (Köppen climate classification Csa) - Hot, dry summer and a mild wet winter.

Maps

Terrain

Loading map...

Airport Layout

Loading map...


Accidents & Serious Incidents at or in vicinity of LGSR

None on SKYbrary